Current Version              Previous Version:    01  02  03  04  05  06  07  08  09  10  11  12  13  14  15  16  17  18  19  20  21  22  23  24  25  26  27  28  29  30  
   31  32  33  34  35  36  37  38  39  40  41  42  43  44  45  46  47  48  49  50  51  52  53  54  55  56  57  58  59  60  

[Printable]
939
ASUS44 KLUB 211810
RWRTX
WEST TEXAS WEATHER ROUNDUP
NATIONAL WEATHER SERVICE LUBBOCK TX
100 PM CDT TUE OCT 21 2014

NOTE: "FAIR" INDICATES FEW OR NO CLOUDS BELOW 12,000 FEET WITH NO
SIGNIFICANT WEATHER AND/OR OBSTRUCTIONS TO VISIBILITY.

TXZ004-006>008-010-012-014-016-OKZ002-211900-
TEXAS PANHANDLE/OKLAHOMA PANHANDLE

CITY           SKY/WX    TMP DP  RH WIND       PRES   REMARKS
AMARILLO       PTSUNNY   73  53  49 S9        30.12F
BORGER         PTSUNNY   76  48  37 SW12G22   30.10F
CANADIAN       CLOUDY    78  55  45 SW10      30.08F
DALHART        SUNNY     74  47  38 S15G25    30.12F
DUMAS          MOSUNNY   74  50  42 SW10      30.11F
GUYMON         MOSUNNY   77  51  40 S17       30.06F
HEREFORD       MOSUNNY   72  54  52 SE10G17   30.13F
PAMPA          PTSUNNY   74  51  44 S9G20     30.12F
PERRYTON       PTSUNNY   76  52  43 SW16      30.09F
$$

TXZ026-029-035-045-048-211900-
SOUTHERN PANHANDLE/SOUTH PLAINS/ROLLING PLAINS

CITY           SKY/WX    TMP DP  RH WIND       PRES   REMARKS
CHILDRESS      MOSUNNY   78  53  41 E5        30.09F
SEMINOLE       MOSUNNY   70  56  61 S8        30.13F
LUBBOCK        PTSUNNY   73  54  51 SE7       30.12F
PLAINVIEW      PTSUNNY   72  55  54 S9        30.11F
SNYDER         PTSUNNY   71  58  61 CALM      30.12F
$$

TXZ052-054-060>062-072-078-127-140-154-169-211900-
PERMIAN BASIN/CONCHO VALLEY/BIG COUNTRY/EDWARDS PLATEAU

CITY           SKY/WX    TMP DP  RH WIND       PRES   REMARKS
ABILENE        MOSUNNY   79  53  40 S10       30.10F
BIG SPRING     MOSUNNY   74  58  56 S7        30.13F
BRADY          MOSUNNY   77  52  41 VRB7      30.09F
BROWNWOOD      MOSUNNY   75  55  50 CALM      30.10F
JUNCTION       SUNNY     77  55  46 VRB6      30.08F
MIDLAND        PTSUNNY   73  57  57 S16       30.10F
ODESSA         PTSUNNY   71  57  61 S13       30.12F
SAN ANGELO     PTSUNNY   77  55  46 E10       30.09F
SONORA         PTSUNNY   75  54  46 E6        30.13F
SWEETWATER     MOSUNNY   76  51  42 SE6       30.14F
WINK           CLOUDY    68  60  75 SE13      30.09F
$$

TXZ055-058-074-075-080-082-211900-
FAR WEST/SOUTHWEST MOUNTAINS/TRANS PECOS

CITY           SKY/WX    TMP DP  RH WIND       PRES   REMARKS
ALPINE         CLOUDY    60  57  88 N5        30.19F
DRYDEN           N/A     67  65  93 E10       30.08S
EL PASO        MOSUNNY   67  53  61 VRB3      30.08F
FORT STOCKTON  CLOUDY    67  61  81 SE15      30.10F
GUADALUPE PASS PTSUNNY   62  51  67 E14       30.18F
MARFA          CLOUDY    59  55  88 CALM      30.18S
PECOS          CLOUDY    67  61  81 E13       30.09S
PRESIDIO       CLOUDY    67  62  83 W9        30.07
$$

TXZ014-016-019-021>030-083-211900
TEXAS TECH WEST TEXAS MESONET/TEXAS PANHANDLE/NORTHERN SOUTH PLAINS

CITY           SKY/WX    TMP DP  RH WIND       PRES   REMARKS
ABERNATHY 5ENE   N/A     72  54  52 S6        30.13F
AMARILLO 9NNE    N/A     74  52  46 SW7       30.11F
AMARILLO 7SSE    N/A     74  50  43 S17       30.13F
AMHERST 1NE      N/A     71  52  51 S7        30.13F
BOOTLEG 11WNW    N/A     70  49  45 S13       30.16F
CANADIAN 6E      N/A     77  55  45 S10       30.07F
CAPROCK CYN SP   N/A     75  52  43 SE9       30.10F
CHILDRESS 2NNE   N/A     80  53  38 S10       30.08F
CLARENDON 2WSW   N/A     77  51  40 SE12      30.11F
CLAUDE 12SW      N/A     73  53  49 S9        30.12F
DIMMITT 2NE      N/A     70  49  47 SE10      30.13F
FLOYDADA 2NNE    N/A     73  50  44 SE10      30.12F
FRIONA 2NE       N/A     71  51  48 S10       30.14F
GOODLETT 3W      N/A     80  53  38 SE8       30.07F
HART 3N          N/A     73  50  44 SE7       30.13F
HEREFORD 2NW     N/A     72  47  41 SE12      30.13F
MCLEAN 1E        N/A     76  51  41 S8        30.10F
MEMPHIS 1NE      N/A     79  52  39 SE8       30.08F
MULESHOE 2SSW    N/A     73  50  44 S10       30.13F
OLTON 6S         N/A     71  50  48 S7        30.13F
PALO DURO SP     N/A     74  52  46 SE9       30.13F
PAMPA 2E         N/A     73  53  48 S8        30.11F
PLAINVIEW 1S     N/A     73  52  47 SE9       30.12F
SILVERTON 7ESE   N/A     75  50  41 S9        30.12F
TULIA 2ENE       N/A     72  51  48 SE8       30.12F
TURKEY 2WSW      N/A     76  54  46 SE6       30.09F
UMBARGER 3NNE    N/A     73  52  47 SE10      30.13F
$$

TXZ033>036-039>041-045>048-211900
TEXAS TECH WEST TEXAS MESONET/SOUTH PLAINS

CITY           SKY/WX    TMP DP  RH WIND       PRES   REMARKS
AIKEN 3WSW       N/A     72  53  49 SE8       30.13F
ANDREWS 2NE      N/A     70  55  58 SE10      30.12F
ANTON 6SSW       N/A     72  55  55 SE7       30.12F
BROWNFIELD 2S    N/A     69  55  60 S7        30.12F
DENVR CTY 7WNW   N/A     67  54  62 S12       30.13F
GAIL 2ESE        N/A     74  57  55 SE6       30.10F
LAMESA 2SE       N/A     71  58  65 S8        30.13S
LEVELLAND 4S     N/A     72  49  45 SE10      30.13F
LUBBOCK 3WNW     N/A     74  53  47 SE7       30.12F
MORTON 1ENE      N/A     72  52  49 SE9       30.13F
ODONNELL 1N      N/A     72  49  44 E9        30.12F
PLAINS 3N        N/A     71  54  54 SE14      30.13F
RALLS 1SE        N/A     72  54  53 S6        30.13F
REESE CENTER     N/A     71  53  52 S6        30.12F
SEMINOLE 2NNE    N/A     70  55  60 SE8       30.12F
SLATON 2NE       N/A     72  55  54 SW1       30.12F
SNYDER 3E        N/A     75  57  53 S7        30.11F
SUNDOWN 8SW      N/A     70  53  53 SE10      30.13F
TAHOKA 3NNE      N/A     74  52  46 E9        30.11F
WOLFFORTH 6SSW   N/A     74  53  47 SE7       30.13F
$$

TXZ031-032-036>038-042>044-211900-
TEXAS TECH WEST TEXAS MESONET/ROLLING PLAINS

CITY           SKY/WX    TMP DP  RH WIND       PRES   REMARKS
ASPERMONT 3NE    N/A     79  57  46 SE2       30.09F
FLUVANNA 3WNW    N/A     71  57  61 SE5       30.12F
GRAHAM 5SSW      N/A     72  53  50 SE8       30.11F
GUTHRIE 10WSW    N/A     78  53  41 SE7       30.08F
HASKELL 1NW      N/A     78  53  40 S6        30.08F
JAYTON 1SSE      N/A     79  53  40 SE7       30.09F
KNOX CITY 3NW    N/A     80  53  39 E3        30.08F
LK A HENRY 1NW   N/A     73  56  55 E3        30.09F
NORTHFIELD 1S    N/A     80  55  41 SE12      30.08F
ODELL 4ENE       N/A     81  55  40 S6        30.08F
PADUCAH 10SW     N/A     79  53  40 S9        30.08F
POST 1NE         N/A     75  56  51 S2        30.10F
RRING SPRGS 3N   N/A     76  53  43 SE12      30.10F
SEYMOUR 3NW      N/A     79  55  44 S8        30.08F
SPUR 1W          N/A     76  51  41 S7        30.09F
WEINERT 2NNE     N/A     80  55  40 S8        30.08F
WHITE RVR 6NE    N/A     74  52  46 SE6       30.11F
$$

TXZ052-054-060>062-072-078-127-140-154-169-211900-
TEXAS TECH WEST TEXAS MESONET/PERMIAN BASIN/
CONCHO VALLEY/BIG COUNTRY/EDWARDS PLATEAU

CITY           SKY/WX    TMP DP  RH WIND       PRES   REMARKS
COYANOSA 2N      N/A     67  62  85 SE14      30.09F
JUNCTION 1SSW    N/A     76  58  53 N5        30.08F
MERTZON 3NNE     N/A     76  54  47 NE9       30.10F
SAN ANGELO 7NW   N/A     78  54  43 SE7       30.10F
STRLNG CT 4WSW   N/A     74  53  48 E7        30.10F
ST LAWRNCE 5SW   N/A     74  54  50 SE12      30.11F
SWEETWATR 11SW   N/A     74  53  49 S1        30.12F
WALL 1E          N/A     77  54  45 E6        30.10F
$$

TXZ055-058-074-075-080-082-211900-
TEXAS TECH WEST TEXAS MESONET/FAR WEST/SOUTHWEST MOUNTAINS/TRANS PECOS

CITY           SKY/WX    TMP DP  RH WIND       PRES   REMARKS
PRSMN GAP BBNP   N/A     66  62  88 NE8       30.08F
GUADLPE MTN NP   N/A     59  52  76 E5        30.19S
$$